Regional Weather Roundup
Issued by NWS Charleston, SC

Current Version | Previous Version | Text Only | Print | Product List | Glossary Off
Versions: 1 2 3 4 5 6 7 8 9 10 11 12 13 14 15 16 17 18 19 20 21 22 23 24 25 26 27 28 29 30 31 32 33 34 35 36 37 38 39 40 41 42 43 44 45 46 47 48 49 50

000
ASUS42 KCHS 211412
RWRCHS

REGIONAL WEATHER ROUNDUP
NATIONAL WEATHER SERVICE CHARLESTON SC
1000 AM EDT FRI JUL 21 2017

NOTE: "FAIR" INDICATES FEW OR NO CLOUDS BELOW 12,000 FEET WITH NO
SIGNIFICANT WEATHER AND/OR OBSTRUCTIONS TO VISIBILITY.

NOT ALL STATIONS ARE QUALITY CONTROLLED. USE DATA WITH CAUTION...
ESPECIALLY DEWPOINT OBSERVATIONS.

SCZ027-030-031-034>040-042>050-211500-
...SOUTHEAST SOUTH CAROLINA...

CITY           SKY/WX    TMP DP  RH WIND       PRES   REMARKS
N CHARLESTON   MOSUNNY   84  72  67 W7        30.06S
WATERFRONT PRK   N/A     82  77  84 VRB3      30.05R HX  90
JOHNS ISLAND   FAIR      86  75  70 SW6       30.07S HX  95
PINOPOLIS        N/A     81  73  78 SW5       30.00R
MONCKS CORNER  FAIR      81  70  69 SW6       30.06S
SUMMERVILLE    FAIR      81  70  69 SW3       30.07F
BEAUFORT MCAS  SUNNY     85  73  67 SW6       30.06F HX  91
BEAUFORT ARPT  FAIR      82  72  69 SW3       30.06S
HILTON HEAD IS SUNNY     84  75  74 SW3       30.06F HX  92
WALTERBORO     SUNNY     81  72  74 W5        30.07F
ALLENDALE        N/A    N/A N/A N/A MISG        N/A

...SOUTHERN MIDLANDS AND PEE DEE...

CITY           SKY/WX    TMP DP  RH WIND       PRES   REMARKS
GEORGETOWN     FAIR      81  73  78 W9        30.07S
KINGSTREE      FAIR      81  72  74 W5        30.06S
ORANGEBURG     SUNNY     81  72  74 SW3       30.06S
BARNWELL       FAIR      82  75  78 CALM      30.06S
AIKEN          FAIR      82  72  69 W3        30.10S
MANNING        FAIR      82  72  69 SW18      30.06S
COLUMBIA       SUNNY     84  73  69 CALM      30.04S HX  90
SUMTER         SUNNY     82  72  71 W5        30.03S
FLORENCE       SUNNY     83  74  74 SW7       30.05S
MYRTLE BEACH   NOT AVBL
N MYRTLE BEACH SUNNY     84  72  67 W7        30.05S

$$

GAZ063-065-086>088-099>101-113>116-118-119-134>141-150-211500-
...SOUTHEAST GEORGIA...

CITY           SKY/WX    TMP DP  RH WIND       PRES   REMARKS
SAVANNAH ARPT  SUNNY     84  73  69 S5        30.07S HX  90
HUNTER AAF     SUNNY     83  73  69 SW5       30.05R
FORT STEWART   SUNNY     81  72  74 SW3       30.05S
STATESBORO     SUNNY     83  75  76 CALM      30.06S HX  90
SYLVANIA       SUNNY     82  76  82 CALM      30.07S
CLAXTON        FAIR      82  76  81 CALM      30.06S HX  90

...CSRA...CENTRAL AND FAR SOUTHEAST GEORGIA...

CITY           SKY/WX    TMP DP  RH WIND       PRES   REMARKS
THOMSON        SUNNY     84  73  69 CALM      30.11S HX  91
AUGUSTA-BUSH   SUNNY     83  75  77 CALM      30.04F HX  90
AUGUSTA-DANIEL SUNNY     85  71  63 CALM      30.06F HX  90
SWAINSBORO     FAIR      81  75  83 CALM      30.07S
VIDALIA        SUNNY     82  75  78 CALM      30.07S
EASTMAN        FAIR      84  68  57 CALM      30.08S
HAZLEHURST     PTSUNNY   83  77  80 CALM      30.06R HX  92
ALMA           PTSUNNY   83  74  74 VRB3      30.06S
WAYCROSS       SUNNY     82  81  96 S3        30.07S HX  95
JESUP          NOT AVBL
BAXLEY         FAIR      82  82 100 S3        30.07R HX  97
BRUNSWICK      SUNNY     84  75  74 S5        30.08R HX  92
SAINT SIMONS   SUNNY     83  73  72 SE7       30.07R

$$

SCZ027-028-034-036>038-045-046-048>050-GAZ119-141-211500-
...LAKE AND SUPPLEMENTAL COASTAL OBSERVATIONS...

STATION/POSITION TIME  TEMP    WIND        PRES    WAVE   SWELL
                       AIR SEA DIR/SP/G            HT/PER HT/PER/DIR
                 (UTC) (F)     (DEG/KT/KT) (MB)    (FT/S) (FT/S/D)
WINYAH BAY       1245   80     270/  6     1018.0
LAKE MURRAY      1320   82     270/  1/  4 1016.6R
ACE BASIN NERRS  1245   82        CALM     1018.0
FORT PULASKI     1348   82 85  250/  4/  6 1018.5R
SAPELO ISLAND    1300   81        CALM     1018.0

$$

ANZ835-935-AMZ111-154-330-350-352-354-370-450-454-472-211500-
...C-MAN AND BUOY OBSERVATIONS...

STATION/POSITION TIME  TEMP    WIND        PRES    WAVE   SWELL
                       AIR SEA DIR/SP/G            HT/PER HT/PER/DIR
                 (UTC) (F)     (DEG/KT/KT) (MB)    (FT/S) (FT/S/D)
BUOY 41004       1350   82 83  250/  8/ 10 1018.0R   3/ 8   2/130/ 8
BUOY 41008       1350   82 82   CALM  /  2 1018.1R   2/ 8   2/110/ 8
FOLLY BEACH CMAN 1300   81     280/  3/  5 1018.7R
CAPERS NEARSHORE 1308   81 83  290/  6/  8 1017.9R
FRIPP NEARSHORE  1308   82 84  240/  2/  4 1017.7R


STATION/POSITION TIME  TEMP    WIND        PRES    WAVE   SWELL
                       AIR SEA DIR/SP/G            HT/PER HT/PER/DIR
                 (UTC) (F)     (DEG/KT/KT) (MB)    (FT/S) (FT/S/D)
5E ST. MARYS GA  1330      82                N/A     2/ 8
FRYING PAN BUOY  1350   83 83  260/ 10/ 12 1017.8R   3/ 7   2/120/ 7
BUOY 41025       1350   82 84  240/ 10/ 12 1016.8R   3/11   2/140/11
CAPE LOOKOUT NC  1300   82     250/ 12/ 13 1016.7R
BUOY 41002       1350   82 83  240/  8/ 10 1019.1R   3/ 9   3/120/ 9
BUOY 41010       1350   81 85  210/ 10/ 12 1019.1R   3/ 8   2/ 70/ 8
ST AUGUSTINE FL  1400   80 81  110/  2/  3 1019.0R


$$




USA.gov is the U.S. government's official web portal to all federal, state and local government web resources and services.